Estación de Tamelaike INIA

Ultimos registro cada 15 minutos 65
Estación Fecha / Hora Temperatura Humedad Lluvia Velocidad Dirección Radiación Presion
65 Tamelaike INIA 10-05-2026 16:00 9,2 85,5 0 4 260 27 1003
64 Tamelaike INIA 10-05-2026 15:45 9,4 81,4 0 3,9 266 35 1005
63 Tamelaike INIA 10-05-2026 15:30 9,4 80,6 0 5 293 46 1002
62 Tamelaike INIA 10-05-2026 15:15 9,2 81,2 0 4,8 285 45 1021
61 Tamelaike INIA 10-05-2026 15:00 9,2 80,8 0 4,8 279 50 1002
60 Tamelaike INIA 10-05-2026 14:45 9 82,7 0 5,9 273 55 1002
59 Tamelaike INIA 10-05-2026 14:30 9,1 80,4 0 6,9 281 57 1002
58 Tamelaike INIA 10-05-2026 14:15 9,2 79,7 0 7,4 270 64 1005
57 Tamelaike INIA 10-05-2026 14:00 9,2 79 0 8,6 265 72 1002
56 Tamelaike INIA 10-05-2026 13:45 9,1 79,8 0 8,2 261 124 1003
55 Tamelaike INIA 10-05-2026 13:30 9,2 81,6 0 7,9 262 139 1002
54 Tamelaike INIA 10-05-2026 13:15 9,6 81,7 0 6,8 254 215 1004
53 Tamelaike INIA 10-05-2026 13:00 9,8 78 0 5,2 260 348 1022
52 Tamelaike INIA 10-05-2026 12:45 8,9 80,8 0 3,8 280 322 1005
51 Tamelaike INIA 10-05-2026 12:30 8,2 83,6 0 4,2 291 231 1004
50 Tamelaike INIA 10-05-2026 12:15 7,6 87,9 0 3,5 286 229 1003
49 Tamelaike INIA 10-05-2026 12:00 7,2 90,4 0 2,7 266 140 1004
48 Tamelaike INIA 10-05-2026 11:45 7 90,6 0 0 0 148 1004
47 Tamelaike INIA 10-05-2026 11:30 6,6 91,6 0 0 302 167 1004
46 Tamelaike INIA 10-05-2026 11:15 6,4 90,4 0 0 0 143 1004
45 Tamelaike INIA 10-05-2026 11:00 6,1 90,4 0,1 0 0 98 1005
44 Tamelaike INIA 10-05-2026 10:45 5,7 91,1 0 0,2 227 102 1004
43 Tamelaike INIA 10-05-2026 10:30 5,5 90,6 0 0,1 284 62 1004
42 Tamelaike INIA 10-05-2026 10:15 5,1 91,7 0 0,1 162 56 1024
41 Tamelaike INIA 10-05-2026 10:00 4,8 92,1 0,2 0 0 52 1006
40 Tamelaike INIA 10-05-2026 09:45 4,7 91,3 0,1 0 0 37 1006
39 Tamelaike INIA 10-05-2026 09:30 4,8 90,3 0 0,1 271 45 1024
38 Tamelaike INIA 10-05-2026 09:15 4,7 89,5 0 0,3 265 49 1006
37 Tamelaike INIA 10-05-2026 09:00 4,7 89,8 0 1 259 43 1006
36 Tamelaike INIA 10-05-2026 08:45 4,6 88,6 0 0 0 38 1006
35 Tamelaike INIA 10-05-2026 08:30 3,9 90,8 0 0 0 20 1009
34 Tamelaike INIA 10-05-2026 08:15 3,6 92 0 0 0 11 1006
33 Tamelaike INIA 10-05-2026 08:00 3,7 91,4 0 0,2 253 5 1007
32 Tamelaike INIA 10-05-2026 07:45 3,9 91,4 0 0,4 264 0 1024
31 Tamelaike INIA 10-05-2026 07:30 3,9 90 0 0,5 253 0 1008
30 Tamelaike INIA 10-05-2026 07:15 3 94,2 0 0 0 0 1007
29 Tamelaike INIA 10-05-2026 07:00 2,9 94,2 0 0 0 0 1008
28 Tamelaike INIA 10-05-2026 06:45 3,3 91,1 0 0 0 0 1009
27 Tamelaike INIA 10-05-2026 06:30 3,7 91,6 0 0,5 311 0 1007
26 Tamelaike INIA 10-05-2026 06:15 3,8 89,1 0 0,4 217 0 1009
25 Tamelaike INIA 10-05-2026 06:00 3,4 92,3 0 0 183 0 1006
24 Tamelaike INIA 10-05-2026 05:45 3,1 93,2 0 0 0 0 1006
23 Tamelaike INIA 10-05-2026 05:30 3,1 93 0 0 0 0 1009
22 Tamelaike INIA 10-05-2026 05:15 3,5 89,5 0 0,2 223 0 1008
21 Tamelaike INIA 10-05-2026 05:00 3,4 91,2 0 0 178 0 1006
20 Tamelaike INIA 10-05-2026 04:45 2,4 93,8 0 0,7 120 0 1007
19 Tamelaike INIA 10-05-2026 04:30 2,4 92,8 0 0 160 0 1008
18 Tamelaike INIA 10-05-2026 04:15 2,8 91,3 0 0 0 0 1008
17 Tamelaike INIA 10-05-2026 04:00 2,8 91 0 0 0 0 1007
16 Tamelaike INIA 10-05-2026 03:45 2,4 91,8 0 0 183 0 1007
15 Tamelaike INIA 10-05-2026 03:30 2,6 91,1 0 0 0 0 1007
14 Tamelaike INIA 10-05-2026 03:15 2,5 92,5 0 0 0 0 1008
13 Tamelaike INIA 10-05-2026 03:00 2,8 92,8 0 0 110 0 1008
12 Tamelaike INIA 10-05-2026 02:45 2,9 92,3 0 0,1 115 0 1008
11 Tamelaike INIA 10-05-2026 02:30 3,1 89,6 0 0 254 0 1006
10 Tamelaike INIA 10-05-2026 02:15 2,6 92,1 0 0,1 211 0 1010
9 Tamelaike INIA 10-05-2026 02:00 3,3 89,2 0 0 0 0 1007
8 Tamelaike INIA 10-05-2026 01:45 3,7 87,6 0 0 0 0 1010
7 Tamelaike INIA 10-05-2026 01:30 4,1 87,2 0 0,1 286 0 1008
6 Tamelaike INIA 10-05-2026 01:15 4,7 83,6 0 4 232 0 1008
5 Tamelaike INIA 10-05-2026 01:00 3,5 84,7 0 2,9 243 0 1008
4 Tamelaike INIA 10-05-2026 00:45 3,2 88,3 0 0,4 252 0 1008
3 Tamelaike INIA 10-05-2026 00:30 3,4 87,9 0 0,7 258 0 1008
2 Tamelaike INIA 10-05-2026 00:15 3,6 86,8 0 0,4 264 0 1008
1 Tamelaike INIA 10-05-2026 00:00 3,7 86,9 0 0,2 235 0 1008